Time,TemperatureF,DewpointF,PressureIn,WindDirection,WindDirectionDegrees,WindSpeedMPH,WindSpeedGustMPH,Humidity,HourlyPrecipIn,Conditions,Clouds,dailyrainin,SoftwareType,DateUTC
2013-01-08 00:12:00,42.1,42.0,30.20,South,174,0.0,0.0,99,0.01,,,0.01,weatherlink.com 1.10,2013-01-08 08:12:00,
2013-01-08 00:27:00,42.5,43.0,30.20,South,174,0.0,0.0,100,0.01,,,0.01,weatherlink.com 1.10,2013-01-08 08:27:00,
2013-01-08 00:42:00,42.0,42.0,30.21,South,174,0.0,0.0,99,0.01,,,0.01,weatherlink.com 1.10,2013-01-08 08:42:00,
2013-01-08 00:57:00,42.1,42.0,30.21,South,174,0.0,0.0,99,0.00,,,0.01,weatherlink.com 1.10,2013-01-08 08:57:00,
2013-01-08 01:12:00,42.0,42.0,30.21,South,174,0.0,0.0,99,0.00,,,0.01,weatherlink.com 1.10,2013-01-08 09:12:00,
2013-01-08 01:27:00,41.7,42.0,30.21,South,174,0.0,0.0,99,0.00,,,0.01,weatherlink.com 1.10,2013-01-08 09:27:00,
2013-01-08 01:42:00,41.9,42.0,30.21,South,174,0.0,0.0,100,0.00,,,0.01,weatherlink.com 1.10,2013-01-08 09:42:00,
2013-01-08 01:57:00,41.1,41.0,30.21,South,174,0.0,0.0,100,0.00,,,0.01,weatherlink.com 1.10,2013-01-08 09:57:00,
2013-01-08 02:12:00,41.5,42.0,30.21,South,174,0.0,0.0,100,0.00,,,0.01,weatherlink.com 1.10,2013-01-08 10:12:00,
2013-01-08 02:27:00,40.5,40.0,30.21,South,174,0.0,0.0,99,0.00,,,0.01,weatherlink.com 1.10,2013-01-08 10:27:00,
2013-01-08 02:42:00,41.1,41.0,30.22,South,174,0.0,0.0,100,0.00,,,0.01,weatherlink.com 1.10,2013-01-08 10:42:00,
2013-01-08 02:57:00,41.2,41.0,30.21,South,172,2.0,2.0,100,0.00,,,0.01,weatherlink.com 1.10,2013-01-08 10:57:00,
2013-01-08 03:12:00,40.8,41.0,30.22,South,174,1.0,2.0,100,0.00,,,0.01,weatherlink.com 1.10,2013-01-08 11:12:00,
2013-01-08 03:27:00,40.5,41.0,30.22,South,173,1.0,2.0,100,0.00,,,0.01,weatherlink.com 1.10,2013-01-08 11:27:00,
2013-01-08 03:42:00,40.0,40.0,30.22,South,173,2.0,2.0,99,0.00,,,0.01,weatherlink.com 1.10,2013-01-08 11:42:00,
2013-01-08 03:57:00,40.1,40.0,30.21,South,173,1.0,1.0,100,0.00,,,0.01,weatherlink.com 1.10,2013-01-08 11:57:00,
2013-01-08 04:13:00,39.9,40.0,30.22,South,172,0.0,1.0,100,0.00,,,0.01,weatherlink.com 1.10,2013-01-08 12:13:00,
2013-01-08 04:28:00,39.9,40.0,30.22,South,172,1.0,1.0,100,0.00,,,0.01,weatherlink.com 1.10,2013-01-08 12:28:00,
2013-01-08 04:43:00,39.1,39.0,30.21,South,173,2.0,3.0,99,0.00,,,0.00,weatherlink.com 1.10,2013-01-08 12:43:00,
2013-01-08 04:58:00,38.7,39.0,30.21,South,173,1.0,1.0,100,0.00,,,0.00,weatherlink.com 1.10,2013-01-08 12:58:00,
2013-01-08 05:13:00,38.8,39.0,30.21,South,172,1.0,2.0,100,0.00,,,0.00,weatherlink.com 1.10,2013-01-08 13:13:00,
2013-01-08 05:28:00,39.0,39.0,30.21,South,172,1.0,1.0,100,0.00,,,0.00,weatherlink.com 1.10,2013-01-08 13:28:00,
2013-01-08 05:43:00,39.0,39.0,30.21,South,173,0.0,1.0,100,0.00,,,0.00,weatherlink.com 1.10,2013-01-08 13:43:00,
2013-01-08 05:58:00,39.5,40.0,30.21,South,172,0.0,0.0,100,0.00,,,0.00,weatherlink.com 1.10,2013-01-08 13:58:00,
2013-01-08 06:13:00,39.7,40.0,30.22,South,173,1.0,2.0,100,0.00,,,0.00,weatherlink.com 1.10,2013-01-08 14:13:00,
2013-01-08 06:28:00,40.0,40.0,30.23,South,173,2.0,3.0,100,0.00,,,0.00,weatherlink.com 1.10,2013-01-08 14:28:00,
2013-01-08 06:43:00,40.1,40.0,30.23,South,174,0.0,2.0,100,0.00,,,0.00,weatherlink.com 1.10,2013-01-08 14:43:00,
2013-01-08 06:58:00,39.6,40.0,30.23,South,173,0.0,0.0,100,0.00,,,0.00,weatherlink.com 1.10,2013-01-08 14:58:00,
2013-01-08 07:13:00,39.5,40.0,30.23,South,173,0.0,0.0,100,0.00,,,0.00,weatherlink.com 1.10,2013-01-08 15:13:00,
2013-01-08 07:28:00,39.5,40.0,30.23,South,173,0.0,0.0,100,0.00,,,0.00,weatherlink.com 1.10,2013-01-08 15:28:00,
2013-01-08 07:43:00,39.6,40.0,30.24,South,173,0.0,0.0,100,0.00,,,0.00,weatherlink.com 1.10,2013-01-08 15:43:00,
2013-01-08 07:58:00,39.4,39.0,30.24,South,173,0.0,0.0,100,0.00,,,0.00,weatherlink.com 1.10,2013-01-08 15:58:00,
2013-01-08 08:13:00,39.7,40.0,30.25,South,173,0.0,0.0,100,0.00,,,0.00,weatherlink.com 1.10,2013-01-08 16:13:00,
2013-01-08 08:28:00,40.6,41.0,30.25,South,173,0.0,0.0,100,0.00,,,0.00,weatherlink.com 1.10,2013-01-08 16:28:00,
2013-01-08 08:43:00,40.8,41.0,30.26,South,174,0.0,0.0,100,0.00,,,0.00,weatherlink.com 1.10,2013-01-08 16:43:00,
2013-01-08 08:58:00,41.6,42.0,30.26,South,174,2.0,3.0,100,0.00,,,0.00,weatherlink.com 1.10,2013-01-08 16:58:00,
2013-01-08 09:13:00,41.9,42.0,30.26,South,174,1.0,4.0,100,0.00,,,0.00,weatherlink.com 1.10,2013-01-08 17:13:00,
2013-01-08 09:28:00,41.9,42.0,30.27,South,174,0.0,1.0,100,0.00,,,0.00,weatherlink.com 1.10,2013-01-08 17:28:00,
2013-01-08 09:43:00,42.3,42.0,30.27,South,174,0.0,0.0,100,0.00,,,0.00,weatherlink.com 1.10,2013-01-08 17:43:00,
2013-01-08 09:58:00,43.1,43.0,30.27,South,174,0.0,0.0,100,0.00,,,0.00,weatherlink.com 1.10,2013-01-08 17:58:00,
2013-01-08 10:13:00,44.9,45.0,30.27,South,174,0.0,0.0,100,0.00,,,0.00,weatherlink.com 1.10,2013-01-08 18:13:00,
2013-01-08 10:28:00,45.4,45.0,30.26,South,174,0.0,0.0,100,0.00,,,0.00,weatherlink.com 1.10,2013-01-08 18:28:00,
2013-01-08 10:43:00,45.7,45.0,30.26,South,174,0.0,0.0,98,0.00,,,0.00,weatherlink.com 1.10,2013-01-08 18:43:00,
2013-01-08 10:58:00,46.8,47.0,30.25,South,174,0.0,0.0,99,0.00,,,0.00,weatherlink.com 1.10,2013-01-08 18:58:00,
2013-01-08 11:13:00,47.5,48.0,30.25,South,175,0.0,0.0,100,0.00,,,0.00,weatherlink.com 1.10,2013-01-08 19:13:00,
2013-01-08 11:28:00,48.5,48.0,30.23,South,174,1.0,3.0,99,0.00,,,0.00,weatherlink.com 1.10,2013-01-08 19:28:00,
2013-01-08 11:44:00,49.6,49.0,30.22,South,174,2.0,2.0,99,0.00,,,0.00,weatherlink.com 1.10,2013-01-08 19:44:00,
2013-01-08 11:59:00,50.3,50.0,30.22,South,174,0.0,3.0,98,0.00,,,0.00,weatherlink.com 1.10,2013-01-08 19:59:00,
2013-01-08 12:14:00,52.0,51.0,30.21,South,174,5.0,5.0,96,0.00,,,0.00,weatherlink.com 1.10,2013-01-08 20:14:00,
2013-01-08 12:29:00,55.0,52.0,30.20,South,174,5.0,5.0,88,0.00,,,0.00,weatherlink.com 1.10,2013-01-08 20:29:00,
2013-01-08 12:59:00,56.9,52.0,30.18,South,174,2.0,6.0,83,0.00,,,0.00,weatherlink.com 1.10,2013-01-08 20:59:00,
2013-01-08 13:14:00,56.7,51.0,30.18,South,174,5.0,6.0,82,0.00,,,0.00,weatherlink.com 1.10,2013-01-08 21:14:00,
2013-01-08 13:29:00,56.4,52.0,30.18,South,174,3.0,6.0,84,0.00,,,0.00,weatherlink.com 1.10,2013-01-08 21:29:00,
2013-01-08 13:44:00,57.8,52.0,30.17,South,174,2.0,6.0,82,0.00,,,0.00,weatherlink.com 1.10,2013-01-08 21:44:00,
2013-01-08 13:59:00,56.7,52.0,30.17,South,174,5.0,8.0,85,0.00,,,0.00,weatherlink.com 1.10,2013-01-08 21:59:00,
2013-01-08 14:14:00,56.8,52.0,30.17,South,174,4.0,7.0,83,0.00,,,0.00,weatherlink.com 1.10,2013-01-08 22:14:00,
2013-01-08 14:29:00,56.0,51.0,30.17,South,174,5.0,9.0,84,0.00,,,0.00,weatherlink.com 1.10,2013-01-08 22:29:00,
2013-01-08 14:44:00,55.6,51.0,30.17,South,174,6.0,9.0,85,0.00,,,0.00,weatherlink.com 1.10,2013-01-08 22:44:00,
2013-01-08 14:59:00,55.4,51.0,30.17,South,174,1.0,8.0,86,0.00,,,0.00,weatherlink.com 1.10,2013-01-08 22:59:00,
2013-01-08 15:14:00,55.1,51.0,30.16,South,174,4.0,6.0,86,0.00,,,0.00,weatherlink.com 1.10,2013-01-08 23:14:00,
2013-01-08 15:29:00,55.5,52.0,30.16,South,174,4.0,4.0,88,0.00,,,0.00,weatherlink.com 1.10,2013-01-08 23:29:00,
2013-01-08 15:44:00,55.5,52.0,30.16,South,174,4.0,4.0,87,0.00,,,0.00,weatherlink.com 1.10,2013-01-08 23:44:00,
2013-01-08 15:59:00,55.3,52.0,30.15,South,174,2.0,4.0,88,0.00,,,0.00,weatherlink.com 1.10,2013-01-08 23:59:00,
2013-01-08 16:14:00,54.9,52.0,30.15,South,174,1.0,4.0,88,0.00,,,0.00,weatherlink.com 1.10,2013-01-09 00:14:00,
2013-01-08 16:29:00,53.4,51.0,30.14,South,174,2.0,4.0,90,0.00,,,0.00,weatherlink.com 1.10,2013-01-09 00:29:00,
2013-01-08 16:44:00,52.5,50.0,30.14,South,174,1.0,3.0,91,0.00,,,0.00,weatherlink.com 1.10,2013-01-09 00:44:00,
2013-01-08 16:59:00,51.2,49.0,30.14,South,174,0.0,1.0,93,0.00,,,0.00,weatherlink.com 1.10,2013-01-09 00:59:00,
2013-01-08 17:14:00,50.4,49.0,30.14,South,174,1.0,3.0,94,0.00,,,0.00,weatherlink.com 1.10,2013-01-09 01:14:00,
2013-01-08 17:29:00,48.6,47.0,30.15,South,173,2.0,2.0,94,0.00,,,0.00,weatherlink.com 1.10,2013-01-09 01:29:00,
2013-01-08 17:44:00,47.3,46.0,30.15,South,174,1.0,2.0,95,0.00,,,0.00,weatherlink.com 1.10,2013-01-09 01:44:00,
2013-01-08 17:59:00,46.5,46.0,30.15,South,173,1.0,2.0,96,0.00,,,0.00,weatherlink.com 1.10,2013-01-09 01:59:00,
2013-01-08 18:14:00,46.6,46.0,30.15,South,174,2.0,3.0,97,0.00,,,0.00,weatherlink.com 1.10,2013-01-09 02:14:00,
2013-01-08 18:30:00,48.2,48.0,30.15,South,173,2.0,3.0,99,0.00,,,0.00,weatherlink.com 1.10,2013-01-09 02:30:00,
2013-01-08 18:45:00,48.6,48.0,30.15,South,173,0.0,2.0,98,0.00,,,0.00,weatherlink.com 1.10,2013-01-09 02:45:00,
2013-01-08 19:00:00,49.4,49.0,30.16,South,174,0.0,0.0,99,0.00,,,0.00,weatherlink.com 1.10,2013-01-09 03:00:00,
2013-01-08 19:30:00,49.6,49.0,30.16,South,173,0.0,0.0,99,0.00,,,0.00,weatherlink.com 1.10,2013-01-09 03:30:00,
2013-01-08 19:45:00,49.8,50.0,30.17,South,173,0.0,0.0,99,0.00,,,0.00,weatherlink.com 1.10,2013-01-09 03:45:00,
2013-01-08 20:00:00,49.9,49.0,30.16,South,172,0.0,0.0,98,0.00,,,0.00,weatherlink.com 1.10,2013-01-09 04:00:00,
2013-01-08 20:15:00,50.0,50.0,30.15,South,173,0.0,0.0,99,0.00,,,0.00,weatherlink.com 1.10,2013-01-09 04:15:00,
2013-01-08 20:30:00,50.1,50.0,30.15,NE,43,2.0,4.0,99,0.00,,,0.00,weatherlink.com 1.10,2013-01-09 04:30:00,
2013-01-08 20:45:00,49.3,49.0,30.15,South,173,0.0,2.0,98,0.00,,,0.00,weatherlink.com 1.10,2013-01-09 04:45:00,
2013-01-08 21:15:00,46.3,46.0,30.16,South,173,0.0,0.0,98,0.00,,,0.00,weatherlink.com 1.10,2013-01-09 05:15:00,
2013-01-08 21:30:00,45.7,45.0,30.17,South,173,0.0,0.0,98,0.00,,,0.00,weatherlink.com 1.10,2013-01-09 05:30:00,
2013-01-08 21:45:00,45.0,45.0,30.16,South,173,0.0,0.0,98,0.00,,,0.00,weatherlink.com 1.10,2013-01-09 05:45:00,
2013-01-08 22:00:00,45.1,45.0,30.16,South,172,0.0,0.0,99,0.00,,,0.00,weatherlink.com 1.10,2013-01-09 06:00:00,
2013-01-08 22:15:00,46.1,46.0,30.16,South,173,2.0,5.0,100,0.00,,,0.00,weatherlink.com 1.10,2013-01-09 06:15:00,
2013-01-08 22:30:00,46.9,47.0,30.16,South,173,3.0,6.0,99,0.00,,,0.00,weatherlink.com 1.10,2013-01-09 06:30:00,
2013-01-08 22:45:00,46.5,46.0,30.17,South,173,0.0,5.0,99,0.00,,,0.00,weatherlink.com 1.10,2013-01-09 06:45:00,
2013-01-08 23:00:00,45.0,45.0,30.16,South,173,0.0,2.0,98,0.00,,,0.00,weatherlink.com 1.10,2013-01-09 07:00:00,
2013-01-08 23:15:00,44.6,44.0,30.16,South,173,0.0,0.0,98,0.00,,,0.00,weatherlink.com 1.10,2013-01-09 07:15:00,
2013-01-08 23:30:00,43.9,43.0,30.17,South,173,2.0,2.0,98,0.00,,,0.00,weatherlink.com 1.10,2013-01-09 07:30:00,
2013-01-08 23:45:00,43.2,43.0,30.16,South,173,0.0,1.0,98,0.00,,,0.00,weatherlink.com 1.10,2013-01-09 07:45:00,